Time,TemperatureF,DewpointF,PressureIn,WindDirection,WindDirectionDegrees,WindSpeedMPH,WindSpeedGustMPH,Humidity,HourlyPrecipIn,Conditions,Clouds,dailyrainin,SoftwareType,DateUTC
2013-09-09 00:14:00,66.8,54.0,29.73,West,274,0.0,0.0,64,0.00,,,0.00,weatherlink.com 1.10,2013-09-09 07:14:00,
2013-09-09 00:29:00,66.7,53.0,29.73,West,274,0.0,0.0,62,0.00,,,0.00,weatherlink.com 1.10,2013-09-09 07:29:00,
2013-09-09 00:44:00,67.1,53.0,29.73,West,274,0.0,0.0,62,0.00,,,0.00,weatherlink.com 1.10,2013-09-09 07:44:00,
2013-09-09 00:59:00,67.6,54.0,29.73,West,274,0.0,0.0,61,0.00,,,0.00,weatherlink.com 1.10,2013-09-09 07:59:00,
2013-09-09 01:14:00,67.6,54.0,29.74,West,274,0.0,0.0,61,0.00,,,0.00,weatherlink.com 1.10,2013-09-09 08:14:00,
2013-09-09 01:29:00,67.3,54.0,29.73,West,274,0.0,0.0,62,0.00,,,0.00,weatherlink.com 1.10,2013-09-09 08:29:00,
2013-09-09 01:44:00,66.8,54.0,29.73,West,273,0.0,0.0,64,0.00,,,0.00,weatherlink.com 1.10,2013-09-09 08:44:00,
2013-09-09 01:59:00,66.2,54.0,29.73,West,273,0.0,0.0,65,0.00,,,0.00,weatherlink.com 1.10,2013-09-09 08:59:00,
2013-09-09 02:14:00,65.6,54.0,29.73,West,273,0.0,0.0,66,0.00,,,0.00,weatherlink.com 1.10,2013-09-09 09:14:00,
2013-09-09 02:29:00,65.1,54.0,29.72,West,274,0.0,0.0,67,0.00,,,0.00,weatherlink.com 1.10,2013-09-09 09:29:00,
2013-09-09 02:44:00,64.8,54.0,29.71,West,274,0.0,0.0,68,0.00,,,0.00,weatherlink.com 1.10,2013-09-09 09:44:00,
2013-09-09 02:59:00,64.6,54.0,29.71,West,274,0.0,0.0,68,0.00,,,0.00,weatherlink.com 1.10,2013-09-09 09:59:00,
2013-09-09 03:14:00,64.7,54.0,29.72,West,273,0.0,0.0,68,0.00,,,0.00,weatherlink.com 1.10,2013-09-09 10:14:00,
2013-09-09 03:29:00,64.6,55.0,29.72,West,273,0.0,0.0,70,0.00,,,0.00,weatherlink.com 1.10,2013-09-09 10:29:00,
2013-09-09 03:44:00,64.3,54.0,29.71,West,274,0.0,0.0,70,0.00,,,0.00,weatherlink.com 1.10,2013-09-09 10:44:00,
2013-09-09 03:59:00,63.9,54.0,29.71,West,274,0.0,0.0,71,0.00,,,0.00,weatherlink.com 1.10,2013-09-09 10:59:00,
2013-09-09 04:14:00,63.5,54.0,29.71,West,273,0.0,0.0,72,0.00,,,0.00,weatherlink.com 1.10,2013-09-09 11:14:00,
2013-09-09 04:29:00,63.3,54.0,29.71,West,274,0.0,0.0,72,0.00,,,0.00,weatherlink.com 1.10,2013-09-09 11:29:00,
2013-09-09 04:44:00,63.2,54.0,29.72,West,274,0.0,0.0,72,0.00,,,0.00,weatherlink.com 1.10,2013-09-09 11:44:00,
2013-09-09 04:59:00,63.2,54.0,29.72,West,274,0.0,0.0,72,0.00,,,0.00,weatherlink.com 1.10,2013-09-09 11:59:00,
2013-09-09 05:14:00,63.2,54.0,29.72,West,274,0.0,0.0,73,0.00,,,0.00,weatherlink.com 1.10,2013-09-09 12:14:00,
2013-09-09 05:29:00,63.0,54.0,29.72,West,274,0.0,0.0,73,0.00,,,0.00,weatherlink.com 1.10,2013-09-09 12:29:00,
2013-09-09 05:44:00,62.7,54.0,29.71,West,274,0.0,0.0,74,0.00,,,0.00,weatherlink.com 1.10,2013-09-09 12:44:00,
2013-09-09 05:59:00,62.5,54.0,29.71,West,274,0.0,0.0,74,0.00,,,0.00,weatherlink.com 1.10,2013-09-09 12:59:00,
2013-09-09 06:14:00,62.5,54.0,29.72,West,273,0.0,0.0,74,0.00,,,0.00,weatherlink.com 1.10,2013-09-09 13:14:00,
2013-09-09 06:29:00,62.6,54.0,29.71,West,273,0.0,0.0,73,0.00,,,0.00,weatherlink.com 1.10,2013-09-09 13:29:00,
2013-09-09 06:44:00,62.6,54.0,29.72,West,274,0.0,0.0,73,0.00,,,0.00,weatherlink.com 1.10,2013-09-09 13:44:00,
2013-09-09 06:59:00,62.6,53.0,29.72,West,274,0.0,0.0,72,0.00,,,0.00,weatherlink.com 1.10,2013-09-09 13:59:00,
2013-09-09 07:14:00,62.8,54.0,29.73,West,274,0.0,0.0,73,0.00,,,0.00,weatherlink.com 1.10,2013-09-09 14:14:00,
2013-09-09 07:29:00,62.6,54.0,29.73,West,274,0.0,0.0,74,0.00,,,0.00,weatherlink.com 1.10,2013-09-09 14:29:00,
2013-09-09 07:44:00,62.4,55.0,29.74,West,274,0.0,0.0,76,0.00,,,0.00,weatherlink.com 1.10,2013-09-09 14:44:00,
2013-09-09 07:59:00,62.2,55.0,29.74,West,273,0.0,0.0,76,0.00,,,0.00,weatherlink.com 1.10,2013-09-09 14:59:00,
2013-09-09 08:14:00,62.4,55.0,29.74,West,273,0.0,0.0,78,0.00,,,0.00,weatherlink.com 1.10,2013-09-09 15:14:00,
2013-09-09 08:29:00,63.0,56.0,29.75,West,273,0.0,0.0,78,0.00,,,0.00,weatherlink.com 1.10,2013-09-09 15:29:00,
2013-09-09 08:44:00,64.2,57.0,29.75,West,273,0.0,0.0,77,0.00,,,0.00,weatherlink.com 1.10,2013-09-09 15:44:00,
2013-09-09 08:59:00,65.1,57.0,29.75,West,273,0.0,0.0,75,0.00,,,0.00,weatherlink.com 1.10,2013-09-09 15:59:00,
2013-09-09 09:14:00,66.4,58.0,29.75,West,274,0.0,0.0,73,0.00,,,0.00,weatherlink.com 1.10,2013-09-09 16:14:00,
2013-09-09 09:29:00,68.6,58.0,29.75,West,273,0.0,0.0,70,0.00,,,0.00,weatherlink.com 1.10,2013-09-09 16:29:00,
2013-09-09 09:44:00,70.5,59.0,29.75,West,273,0.0,1.0,66,0.00,,,0.00,weatherlink.com 1.10,2013-09-09 16:44:00,
2013-09-09 09:59:00,72.8,59.0,29.75,West,274,0.0,1.0,63,0.00,,,0.00,weatherlink.com 1.10,2013-09-09 16:59:00,
2013-09-09 10:14:00,72.0,60.0,29.75,WSW,248,0.0,5.0,65,0.00,,,0.00,weatherlink.com 1.10,2013-09-09 17:14:00,
2013-09-09 10:30:00,71.7,59.0,29.75,WSW,256,0.0,5.0,65,0.00,,,0.00,weatherlink.com 1.10,2013-09-09 17:30:00,
2013-09-09 10:45:00,70.9,59.0,29.75,West,275,0.0,2.0,67,0.00,,,0.00,weatherlink.com 1.10,2013-09-09 17:45:00,
2013-09-09 11:00:00,70.4,59.0,29.75,NW,316,0.0,3.0,67,0.00,,,0.00,weatherlink.com 1.10,2013-09-09 18:00:00,
2013-09-09 11:15:00,70.3,59.0,29.76,NW,304,0.0,2.0,67,0.00,,,0.00,weatherlink.com 1.10,2013-09-09 18:15:00,
2013-09-09 11:30:00,71.3,59.0,29.75,WNW,290,0.0,4.0,66,0.00,,,0.00,weatherlink.com 1.10,2013-09-09 18:30:00,
2013-09-09 11:45:00,72.8,59.0,29.75,NW,313,0.0,4.0,62,0.00,,,0.00,weatherlink.com 1.10,2013-09-09 18:45:00,
2013-09-09 12:00:00,74.8,60.0,29.74,WNW,300,0.0,5.0,61,0.00,,,0.00,weatherlink.com 1.10,2013-09-09 19:00:00,
2013-09-09 12:15:00,75.1,60.0,29.74,WNW,300,0.0,4.0,60,0.00,,,0.00,weatherlink.com 1.10,2013-09-09 19:15:00,
2013-09-09 12:30:00,75.0,60.0,29.73,NW,310,2.0,4.0,60,0.00,,,0.00,weatherlink.com 1.10,2013-09-09 19:30:00,
2013-09-09 12:45:00,75.3,60.0,29.73,West,261,1.0,5.0,60,0.00,,,0.00,weatherlink.com 1.10,2013-09-09 19:45:00,
2013-09-09 13:00:00,75.8,60.0,29.73,NW,315,0.0,7.0,58,0.00,,,0.00,weatherlink.com 1.10,2013-09-09 20:00:00,
2013-09-09 13:15:00,76.0,61.0,29.73,West,267,0.0,4.0,60,0.00,,,0.00,weatherlink.com 1.10,2013-09-09 20:15:00,
2013-09-09 13:30:00,76.0,61.0,29.73,WSW,256,0.0,8.0,59,0.00,,,0.00,weatherlink.com 1.10,2013-09-09 20:30:00,
2013-09-09 13:45:00,76.0,60.0,29.73,North,360,2.0,6.0,58,0.00,,,0.00,weatherlink.com 1.10,2013-09-09 20:45:00,
2013-09-09 14:00:00,75.2,60.0,29.72,NW,306,1.0,7.0,60,0.00,,,0.00,weatherlink.com 1.10,2013-09-09 21:00:00,
2013-09-09 14:15:00,74.7,60.0,29.72,NW,317,6.0,8.0,60,0.00,,,0.00,weatherlink.com 1.10,2013-09-09 21:15:00,
2013-09-09 14:30:00,74.7,60.0,29.71,NW,309,0.0,7.0,60,0.00,,,0.00,weatherlink.com 1.10,2013-09-09 21:30:00,
2013-09-09 14:45:00,75.4,60.0,29.71,NW,317,1.0,4.0,60,0.00,,,0.00,weatherlink.com 1.10,2013-09-09 21:45:00,
2013-09-09 15:00:00,74.8,59.0,29.71,WNW,302,2.0,9.0,59,0.00,,,0.00,weatherlink.com 1.10,2013-09-09 22:00:00,
2013-09-09 15:15:00,74.4,59.0,29.70,NNW,344,0.0,9.0,59,0.00,,,0.00,weatherlink.com 1.10,2013-09-09 22:15:00,
2013-09-09 15:30:00,75.0,60.0,29.70,WNW,298,0.0,7.0,59,0.00,,,0.00,weatherlink.com 1.10,2013-09-09 22:30:00,
2013-09-09 15:45:00,74.1,59.0,29.70,West,279,0.0,11.0,59,0.00,,,0.00,weatherlink.com 1.10,2013-09-09 22:45:00,
2013-09-09 16:00:00,73.3,59.0,29.70,NW,315,0.0,8.0,62,0.00,,,0.00,weatherlink.com 1.10,2013-09-09 23:00:00,
2013-09-09 16:15:00,73.2,59.0,29.70,NW,310,0.0,1.0,61,0.00,,,0.00,weatherlink.com 1.10,2013-09-09 23:15:00,
2013-09-09 16:30:00,72.2,58.0,29.70,NNW,343,0.0,7.0,62,0.00,,,0.00,weatherlink.com 1.10,2013-09-09 23:30:00,
2013-09-09 16:45:00,72.3,59.0,29.70,West,259,0.0,4.0,63,0.00,,,0.00,weatherlink.com 1.10,2013-09-09 23:45:00,
2013-09-09 17:00:00,72.1,59.0,29.70,NW,311,0.0,4.0,63,0.00,,,0.00,weatherlink.com 1.10,2013-09-10 00:00:00,
2013-09-09 17:15:00,71.6,59.0,29.70,NW,307,2.0,3.0,64,0.00,,,0.00,weatherlink.com 1.10,2013-09-10 00:15:00,
2013-09-09 17:30:00,70.9,58.0,29.70,WNW,298,0.0,1.0,64,0.00,,,0.00,weatherlink.com 1.10,2013-09-10 00:30:00,
2013-09-09 17:45:00,70.6,58.0,29.70,WSW,244,0.0,5.0,64,0.00,,,0.00,weatherlink.com 1.10,2013-09-10 00:45:00,
2013-09-09 18:00:00,69.8,57.0,29.70,West,279,0.0,2.0,65,0.00,,,0.00,weatherlink.com 1.10,2013-09-10 01:00:00,
2013-09-09 18:15:00,69.1,57.0,29.70,WNW,292,0.0,0.0,66,0.00,,,0.00,weatherlink.com 1.10,2013-09-10 01:15:00,
2013-09-09 18:31:00,68.6,57.0,29.70,WNW,296,0.0,0.0,67,0.00,,,0.00,weatherlink.com 1.10,2013-09-10 01:31:00,
2013-09-09 18:46:00,68.1,57.0,29.70,WNW,295,0.0,0.0,67,0.00,,,0.00,weatherlink.com 1.10,2013-09-10 01:46:00,
2013-09-09 19:01:00,67.5,57.0,29.70,WNW,296,0.0,0.0,68,0.00,,,0.00,weatherlink.com 1.10,2013-09-10 02:01:00,
2013-09-09 19:16:00,66.7,56.0,29.70,WNW,296,0.0,0.0,69,0.00,,,0.00,weatherlink.com 1.10,2013-09-10 02:16:00,
2013-09-09 19:32:00,65.9,56.0,29.71,WNW,295,0.0,0.0,70,0.00,,,0.00,weatherlink.com 1.10,2013-09-10 02:32:00,
2013-09-09 19:47:00,65.4,56.0,29.71,WNW,296,0.0,0.0,71,0.00,,,0.00,weatherlink.com 1.10,2013-09-10 02:47:00,
2013-09-09 20:02:00,64.6,55.0,29.72,WNW,295,0.0,0.0,72,0.00,,,0.00,weatherlink.com 1.10,2013-09-10 03:02:00,
2013-09-09 20:17:00,63.9,55.0,29.72,WNW,296,0.0,0.0,74,0.00,,,0.00,weatherlink.com 1.10,2013-09-10 03:17:00,
2013-09-09 20:32:00,63.4,55.0,29.72,WNW,295,0.0,0.0,75,0.00,,,0.00,weatherlink.com 1.10,2013-09-10 03:32:00,
2013-09-09 20:47:00,63.1,55.0,29.73,WNW,296,0.0,0.0,76,0.00,,,0.00,weatherlink.com 1.10,2013-09-10 03:47:00,
2013-09-09 21:02:00,62.8,55.0,29.73,WNW,296,0.0,0.0,76,0.00,,,0.00,weatherlink.com 1.10,2013-09-10 04:02:00,
2013-09-09 21:17:00,62.6,55.0,29.74,WNW,296,0.0,0.0,77,0.00,,,0.00,weatherlink.com 1.10,2013-09-10 04:17:00,
2013-09-09 21:32:00,62.3,55.0,29.74,WNW,296,0.0,0.0,77,0.00,,,0.00,weatherlink.com 1.10,2013-09-10 04:32:00,
2013-09-09 21:47:00,62.0,55.0,29.74,WNW,295,0.0,0.0,78,0.00,,,0.00,weatherlink.com 1.10,2013-09-10 04:47:00,
2013-09-09 22:02:00,61.6,55.0,29.74,WNW,295,0.0,0.0,78,0.00,,,0.00,weatherlink.com 1.10,2013-09-10 05:02:00,
2013-09-09 22:17:00,61.1,55.0,29.75,WNW,295,0.0,0.0,79,0.00,,,0.00,weatherlink.com 1.10,2013-09-10 05:17:00,
2013-09-09 22:32:00,60.5,54.0,29.75,WNW,295,0.0,0.0,80,0.00,,,0.00,weatherlink.com 1.10,2013-09-10 05:32:00,
2013-09-09 22:47:00,60.1,54.0,29.75,WNW,295,0.0,0.0,80,0.00,,,0.00,weatherlink.com 1.10,2013-09-10 05:47:00,
2013-09-09 23:02:00,59.7,55.0,29.75,WNW,295,0.0,0.0,83,0.00,,,0.00,weatherlink.com 1.10,2013-09-10 06:02:00,
2013-09-09 23:17:00,59.3,54.0,29.76,WNW,296,0.0,0.0,81,0.00,,,0.00,weatherlink.com 1.10,2013-09-10 06:17:00,
2013-09-09 23:32:00,59.0,54.0,29.75,WNW,296,0.0,0.0,82,0.00,,,0.00,weatherlink.com 1.10,2013-09-10 06:32:00,
2013-09-09 23:47:00,58.7,54.0,29.76,WNW,296,0.0,0.0,83,0.00,,,0.00,weatherlink.com 1.10,2013-09-10 06:47:00,